Location: Unspecified
(0.0000°N, 0.0000°E)
Time: 17:59:38
(UTC+00:00)

Vanguard 2 Rocket - Pass Details

Date: 08 December 2017
Orbit: 553 x 3328 km, 32.9° (Epoch: 24 April)

Event Time Altitude Azimuth Distance (km) Brightness Sun altitude
Rises 16:30:49 0° 228° (SW) 3,623 11.3 18.7°
Reaches altitude 10° 16:32:57 10° 225° (SW) 2,910 11.0 18.2°
Maximum altitude 16:40:12 69° 142° (SE) 1,649 8.4 16.5°
Drops below altitude 10° 16:53:29 10° 61° (ENE) 5,095 10.1 13.5°
Sets 16:58:27 0° 59° (ENE) 6,505 10.6 12.3°
